Tracking 35280 objects as of 7-Sep-2026
HD Live streaming from Space Station
objects crossing your sky now

SL-12 R/B(1)


SL-12 R/B(1) is no longer on orbit


NORAD ID: 28091
Int'l Code: 2003-053C
Launch date: November 24, 2003
Source: Commonwealth of Independent States (former USSR) (CIS)
Launch site: TYURATAM MISSILE AND SPACE COMPLEX (TTMTR)
Decay date: 2003-11-24

Note: This is a ROCKET BODY
Your satellite tracking list
Your tracking list is empty




NASA's NSSDC Master Catalog

Two Line Element Set (TLE):
1 28091U 03053C   03328.80501190 +.18640979 +12680-4 +13407-3 0  9994
2 28091 051.6615 164.6901 0029972 268.9816 090.7970 16.50298071000092
Source of the keplerian elements: AFSPC